| time (UTC) | temp F | wind direction | speed knots | gust knots | rain 1hr in | rain 24hr in | rain mn in | humidity % | barometer mb |
| 20260904184759 | 77 | 255 | 0.9 | 3.5 | 0.00 | 0.00 | 0.00 | 50 | 1017.3 |
| 20260904183256 | 77 | 242 | 1.7 | 6.1 | 0.00 | 0.00 | 0.00 | 49 | 1017.0 |
| 20260904181756 | 78 | 214 | 0.9 | 2.6 | 0.00 | 0.00 | 0.00 | 48 | 1016.9 |
| 20260904180300 | 79 | 225 | 0.9 | 6.1 | 0.00 | 0.00 | 0.00 | 46 | 1016.8 |
| 20260904173257 | 81 | 236 | 2.6 | 7.8 | 0.00 | 0.00 | 0.00 | 44 | 1016.3 |
| 20260904171756 | 82 | 233 | 2.6 | 7.0 | 0.00 | 0.00 | 0.00 | 42 | 1016.2 |
| 20260904170259 | 83 | 286 | 3.5 | 10.4 | 0.00 | 0.00 | 0.00 | 40 | 1016.2 |
| 20260904164757 | 84 | 284 | 3.5 | 11.3 | 0.00 | 0.00 | 0.00 | 39 | 1016.2 |
| 20260904163259 | 85 | 267 | 3.5 | 9.6 | 0.00 | 0.00 | 0.00 | 37 | 1016.1 |
| 20260904161758 | 86 | 93 | 4.3 | 13.9 | 0.00 | 0.00 | 0.00 | 36 | 1016.3 |
| 20260904160256 | 87 | 283 | 3.5 | 12.2 | 0.00 | 0.00 | 0.00 | 35 | 1016.3 |
| 20260904154758 | 87 | 234 | 3.5 | 11.3 | 0.00 | 0.00 | 0.00 | 36 | 1016.5 |
| 20260904153258 | 88 | 236 | 4.3 | 11.3 | 0.00 | 0.00 | 0.00 | 35 | 1016.6 |
| 20260904150256 | 89 | 224 | 4.3 | 11.3 | 0.00 | 0.00 | 0.00 | 34 | 1016.8 |
| 20260904144756 | 89 | 299 | 4.3 | 11.3 | 0.00 | 0.00 | 0.00 | 32 | 1016.9 |
| 20260904143252 | 89 | 206 | 5.2 | 14.8 | 0.00 | 0.00 | 0.00 | 32 | 1017.1 |
| 20260904141752 | 90 | 327 | 4.3 | 13.9 | 0.00 | 0.00 | 0.00 | 32 | 1017.0 |
| 20260904140251 | 90 | 279 | 4.3 | 13.9 | 0.00 | 0.00 | 0.00 | 31 | 1017.3 |
| 20260904134754 | 90 | 329 | 3.5 | 11.3 | 0.00 | 0.00 | 0.00 | 32 | 1017.2 |
| 20260904133605 | 90 | 252 | 3.5 | 10.4 | 0.00 | 0.00 | 0.00 | 33 | 1017.3 |
| 20260904133055 | 90 | 225 | 4.3 | 9.6 | 0.00 | 0.00 | 0.00 | 32 | 1017.6 |
| 20260904124752 | 89 | 172 | 4.3 | 11.3 | 0.00 | 0.00 | 0.00 | 35 | 1017.9 |
| 20260904123248 | 89 | 232 | 4.3 | 10.4 | 0.00 | 0.00 | 0.00 | 37 | 1018.1 |
| 20260904121750 | 88 | 176 | 3.5 | 7.8 | 0.00 | 0.00 | 0.00 | 37 | 1018.4 |
| 20260904120248 | 88 | 252 | 3.5 | 10.4 | 0.00 | 0.00 | 0.00 | 38 | 1018.6 |
| 20260904114750 | 88 | 131 | 2.6 | 9.6 | 0.00 | 0.00 | 0.00 | 37 | 1018.9 |
| 20260904110247 | 86 | 229 | 2.6 | 11.3 | 0.00 | 0.00 | 0.00 | 41 | 1019.7 |
| 20260904103246 | 84 | 194 | 3.5 | 10.4 | 0.00 | 0.00 | 0.00 | 42 | 1020.2 |
| 20260904101744 | 84 | 278 | 3.5 | 12.2 | 0.00 | 0.00 | 0.00 | 43 | 1020.6 |
| 20260904094751 | 82 | 294 | 3.5 | 8.7 | 0.00 | 0.00 | 0.00 | 45 | 1021.1 |
| 20260904093240 | 82 | 213 | 2.6 | 7.8 | 0.00 | 0.00 | 0.00 | 45 | 1021.2 |
| 20260904084741 | 79 | 221 | 2.6 | 7.8 | 0.00 | 0.00 | 0.00 | 49 | 1021.7 |
| 20260904083239 | 79 | 256 | 2.6 | 7.8 | 0.00 | 0.00 | 0.00 | 50 | 1021.8 |
| 20260904080239 | 78 | 244 | 0.9 | 5.2 | 0.00 | 0.00 | 0.00 | 53 | 1021.8 |
| 20260904073236 | 74 | 262 | 1.7 | 6.1 | 0.00 | 0.00 | 0.00 | 57 | 1022.3 |
| 20260904071736 | 73 | 265 | 1.7 | 5.2 | 0.00 | 0.00 | 0.00 | 60 | 1022.2 |
| 20260904070236 | 71 | 225 | 1.7 | 6.1 | 0.00 | 0.00 | 0.00 | 62 | 1022.2 |
| 20260904064733 | 68 | 262 | 0.9 | 3.5 | 0.00 | 0.00 | 0.00 | 67 | 1022.3 |
| 20260904063235 | 67 | 226 | 1.7 | 6.1 | 0.00 | 0.00 | 0.00 | 68 | 1022.3 |
| 20260904061733 | 67 | 265 | 1.7 | 4.3 | 0.00 | 0.00 | 0.00 | 69 | 1022.2 |
| 20260904060231 | 66 | 295 | 0.9 | 5.2 | 0.00 | 0.00 | 0.00 | 69 | 1022.4 |
| 20260904054731 | 65 | 281 | 0.9 | 1.7 | 0.00 | 0.00 | 0.00 | 72 | 1022.5 |
| 20260904053231 | 65 | 269 | 0.0 | 0.9 | 0.00 | 0.00 | 0.00 | 72 | 1022.4 |
| 20260904051733 | 64 | 269 | 0.0 | 0.9 | 0.00 | 0.00 | 0.00 | 73 | 1022.4 |
| 20260904050226 | 64 | 269 | 0.0 | 0.0 | 0.00 | 0.00 | 0.00 | 74 | 1022.4 |
| 20260904043226 | 64 | 269 | 0.0 | 0.9 | 0.00 | 0.00 | 0.00 | 72 | 1022.4 |
| 20260904041723 | 65 | 269 | 0.0 | 0.9 | 0.00 | 0.00 | 0.00 | 71 | 1022.5 |
| 20260904040222 | 65 | 269 | 0.0 | 0.9 | 0.00 | 0.00 | 0.00 | 71 | 1022.5 |
| 20260904034722 | 64 | 269 | 0.0 | 0.0 | 0.00 | 0.00 | 0.00 | 71 | 1022.7 |
| 20260904031728 | 66 | 269 | 0.0 | 0.9 | 0.00 | 0.00 | 0.00 | 67 | 1022.6 |
| 20260904030228 | 67 | 269 | 0.9 | 4.3 | 0.00 | 0.00 | 0.00 | 66 | 1022.7 |
| 20260904024724 | 67 | 218 | 0.9 | 3.5 | 0.00 | 0.00 | 0.00 | 65 | 1022.7 |
| 20260904023216 | 67 | 236 | 0.9 | 2.6 | 0.00 | 0.00 | 0.00 | 66 | 1022.8 |
| 20260904021721 | 67 | 185 | 0.9 | 3.5 | 0.00 | 0.00 | 0.00 | 66 | 1022.9 |
| 20260904020220 | 67 | 214 | 0.0 | 2.6 | 0.00 | 0.00 | 0.00 | 67 | 1022.8 |
| 20260904014717 | 67 | 248 | 0.9 | 2.6 | 0.00 | 0.00 | 0.00 | 66 | 1023.0 |
| 20260904013211 | 68 | 238 | 0.9 | 2.6 | 0.00 | 0.00 | 0.00 | 66 | 1023.1 |
| 20260904011720 | 68 | 219 | 0.9 | 3.5 | 0.00 | 0.00 | 0.00 | 67 | 1023.2 |
| 20260904010212 | 68 | 198 | 0.9 | 3.5 | 0.00 | 0.00 | 0.00 | 67 | 1023.1 |
| 20260904004708 | 68 | 246 | 0.9 | 3.5 | 0.00 | 0.00 | 0.00 | 67 | 1023.1 |
| 20260904003208 | 68 | 288 | 0.9 | 3.5 | 0.00 | 0.00 | 0.00 | 67 | 1023.2 |
| 20260903234710 | 67 | 237 | 0.9 | 3.5 | 0.00 | 0.00 | 0.00 | 67 | 1023.5 |
| 20260903233207 | 67 | 213 | 0.9 | 3.5 | 0.00 | 0.00 | 0.00 | 67 | 1023.6 |
| 20260903231709 | 67 | 211 | 0.9 | 2.6 | 0.00 | 0.00 | 0.00 | 67 | 1023.6 |
| 20260903230208 | 67 | 236 | 0.9 | 3.5 | 0.00 | 0.00 | 0.00 | 68 | 1023.7 |
| 20260903224708 | 67 | 243 | 0.9 | 2.6 | 0.00 | 0.00 | 0.00 | 66 | 1023.9 |
| 20260903223209 | 68 | 217 | 0.9 | 2.6 | 0.00 | 0.00 | 0.00 | 66 | 1023.9 |
| 20260903221706 | 67 | 232 | 0.9 | 3.5 | 0.00 | 0.00 | 0.00 | 67 | 1023.9 |
| 20260903220206 | 67 | 248 | 0.9 | 2.6 | 0.00 | 0.00 | 0.00 | 67 | 1024.0 |
| 20260903214706 | 66 | 230 | 0.0 | 1.7 | 0.00 | 0.00 | 0.00 | 68 | 1023.9 |
| 20260903213205 | 66 | 230 | 0.0 | 0.9 | 0.00 | 0.00 | 0.00 | 68 | 1023.6 |
| 20260903211706 | 67 | 230 | 0.0 | 2.6 | 0.00 | 0.00 | 0.00 | 67 | 1023.5 |
| 20260903210203 | 67 | 217 | 0.9 | 3.5 | 0.00 | 0.00 | 0.00 | 66 | 1023.4 |
| 20260903201704 | 67 | 264 | 0.0 | 0.9 | 0.00 | 0.00 | 0.00 | 66 | 1023.7 |
| 20260903200202 | 67 | 264 | 0.0 | 0.9 | 0.00 | 0.00 | 0.00 | 67 | 1023.7 |
| 20260903194703 | 68 | 264 | 0.0 | 1.7 | 0.00 | 0.00 | 0.00 | 64 | 1023.4 |